Ephrata, WA
on Thursday, November 22, 2012

Thursday
Previous Day Next Day
Daily Summary
 ActualAverageRecord
Temperature
Mean Temperature °F 34°F  
Max Temperature 45°F 42°F 62°F (1990)
Min Temperature 29°F 27°F 6°F (1985)
Degree Days
Heating Degree Days 28 31  
Month to date heating degree days 514 579  
Since 1 July heating degree days 1009 1160  
Cooling Degree Days 0 0  
Month to date cooling degree days 0 0  
Year to date cooling degree days 837 772  
Moisture
Dew Point 31°F   
Average Humidity 79    
Maximum Humidity 92    
Minimum Humidity 65    
Precipitation
Precipitation 0.00 in 0.04 in 0.20 in (1985)
Month to date precipitation 0.88 0.75  
Year to date precipitation 6.74 6.30  
Wind
Wind Speed 6 mph   
Max Wind Speed 13 mph   
Max Gust Speed 16 mph   
Visibility 10 miles   
Events     

Key: T is trace of precipitation, MM is missing value
Source: NWS Daily Summary
Time(PST)TemperatureDew PointHumidity Pressure Visibility Wind DirectionWind SpeedGust SpeedPrecipitationEvents Conditions
12:53 AM 34.0°F 28.0°F 79% 30.24 in 10.0 miles West 9.2 mph - N/A   Clear
1:53 AM 28.9°F 26.1°F 89% 30.28 in 10.0 miles South 3.5 mph - N/A   Clear
2:53 AM 32.0°F 28.0°F 85% 30.30 in 10.0 miles West 9.2 mph - N/A   Clear
3:53 AM 36.0°F 28.0°F 73% 30.31 in 10.0 miles Variable 3.5 mph - N/A   Clear
4:53 AM 36.0°F 28.0°F 73% 30.35 in 10.0 miles SSW 5.8 mph - N/A   Clear
5:53 AM 33.1°F 28.9°F 85% 30.37 in 10.0 miles SW 4.6 mph - N/A   Clear
6:53 AM 30.0°F 27.0°F 88% 30.40 in 10.0 miles North 4.6 mph - N/A   Clear
7:53 AM 30.0°F 27.0°F 88% 30.43 in 10.0 miles North 6.9 mph - N/A   Clear
8:53 AM 35.1°F 30.0°F 82% 30.44 in 10.0 miles North 6.9 mph - N/A   Clear
9:53 AM 37.0°F 30.0°F 76% 30.45 in 10.0 miles NE 8.1 mph - N/A   Clear
10:53 AM 39.0°F 30.9°F 73% 30.47 in 10.0 miles NE 5.8 mph - N/A   Clear
11:53 AM 41.0°F 30.9°F 67% 30.45 in 10.0 miles NNE 5.8 mph - N/A   Partly Cloudy
12:53 PM 43.0°F 33.1°F 68% 30.44 in 10.0 miles NNE 5.8 mph - N/A   Clear
1:53 PM 44.1°F 33.1°F 65% 30.44 in 10.0 miles Variable 3.5 mph - N/A   Clear
2:53 PM 43.0°F 33.1°F 68% 30.43 in 10.0 miles Variable 4.6 mph - N/A   Partly Cloudy
3:53 PM 42.1°F 33.1°F 70% 30.43 in 10.0 miles NE 4.6 mph - N/A   Scattered Clouds
4:53 PM 39.9°F 33.1°F 77% 30.43 in 10.0 miles North 4.6 mph - N/A   Clear
5:53 PM 39.0°F 33.1°F 79% 30.43 in 10.0 miles North 6.9 mph - N/A   Mostly Cloudy
6:53 PM 39.0°F 33.1°F 79% 30.43 in 10.0 miles North 6.9 mph - N/A   Scattered Clouds
7:53 PM 37.0°F 33.1°F 86% 30.42 in 10.0 miles North 10.4 mph - N/A   Partly Cloudy
8:53 PM 37.0°F 32.0°F 82% 30.41 in 10.0 miles North 8.1 mph - N/A   Mostly Cloudy
9:53 PM 37.0°F 32.0°F 82% 30.39 in 10.0 miles North 5.8 mph - N/A   Mostly Cloudy
10:53 PM 37.9°F 32.0°F 79% 30.37 in 10.0 miles North 5.8 mph - N/A   Mostly Cloudy
11:53 PM 37.0°F 32.0°F 82% 30.36 in 10.0 miles North 8.1 mph - N/A   Mostly Cloudy
Moon Phase
Nov. 22 Nov. 28 Dec. 06 Dec. 13 Dec. 20
Sunrise:07:13 AM (PST) Moon Rise:01:21 PM (PST)11/22
Sunset:04:15 PM (PST) Moon Set:01:17 AM (PST)11/22

Copyright © 2014 The Weather Underground, Inc.